Home   Weather   Corfu   Past weeks

Flag for Greece Past Weather in Corfu, Greece — Yesterday and Last 2 Weeks

Now
48 °F

Clear.


Feels Like: 48 °F
Forecast: 47 / 60 °F
Wind: 2 mph from North

Location: Kerkyra Airport

Current Time: Dec 4, 2016 at 2:13:59 am

Latest Report: Dec 4, 2016 at 1:20 am


Visibility: 10 mi

Pressure: 30.15 "Hg

Humidity: 94%

Dew Point: 46 °F

Location of CorfuLocation

Past Weather in Corfu — Graph

°F

Corfu Temperature Yesterday

Maximum temperature yesterday: 66 °F (at 2:50 pm)
Minimum temperature yesterday: 37 °F (at 7:50 am)
Average temperature yesterday: 54 °F

High & Low Weather Summary for the Past Weeks

 TemperatureHumidityPressure
High72 °F (Nov 21, 2:50 pm)100% (Nov 19, 12:20 am)30.27 "Hg (Nov 19, 12:20 am)
Low36 °F (Dec 1, 4:50 am)33% (Dec 1, 4:50 pm)29.74 "Hg (Nov 28, 4:50 am)
Average55 °F83%30.06 "Hg
* Reported Nov 19 12:20 am — Dec 4 12:50 am, Corfu, Weather by CustomWeather, © 2016

Note: Actual official high and low records may vary slightly from our data, if they occured in-between our weather recording intervals... More about our weather records

Advertising

Corfu Weather History for the Previous 24 Hours

Scroll right to see more
 ConditionsComfort  
Time TempWeatherWind HumidityBarometerVisibility
12:50 am
Sun, Dec 4
48 °FClear.3 mph94%30.15 "Hg10 mi
12:20 am48 °FClear.3 mph94%30.15 "Hg10 mi
11:50 pm
Sat, Dec 3
48 °FClear.3 mph94%30.15 "Hg10 mi
11:20 pm50 °FClear.No wind94%30.15 "Hg10 mi
10:50 pm50 °FClear.No wind94%30.15 "Hg10 mi
10:20 pm52 °FClear.3 mph88%30.15 "Hg10 mi
9:50 pm52 °FClear.No wind88%30.15 "Hg10 mi
9:20 pm52 °FClear.No wind94%30.15 "Hg10 mi
8:50 pm52 °FClear.No wind94%30.15 "Hg10 mi
8:20 pm52 °FClear.No wind94%30.12 "Hg10 mi
7:50 pm54 °FClear.No wind88%30.12 "Hg10 mi
7:20 pm54 °FClear.No wind94%30.12 "Hg10 mi
6:50 pm55 °FClear.No wind88%30.12 "Hg10 mi
6:20 pm55 °FClear.No wind88%30.09 "Hg10 mi
5:50 pm57 °FClear.No wind82%30.09 "Hg10 mi
5:20 pm61 °FPassing clouds.No wind72%30.09 "HgN/A
4:50 pm63 °FPassing clouds.No wind68%30.09 "HgN/A
4:20 pm64 °FPassing clouds.No wind64%30.09 "HgN/A
3:50 pm64 °FPassing clouds.3 mph64%30.09 "HgN/A
3:20 pm66 °FPassing clouds.6 mph64%30.07 "HgN/A
2:50 pm66 °FPassing clouds.3 mph64%30.07 "HgN/A
2:20 pm64 °FScattered clouds.5 mph68%30.09 "HgN/A
1:50 pm64 °FScattered clouds.3 mph68%30.09 "HgN/A
1:20 pm64 °FScattered clouds.3 mph73%30.09 "HgN/A
12:50 pm64 °FScattered clouds.2 mph73%30.09 "HgN/A
12:20 pm64 °FPassing clouds.2 mph68%30.09 "HgN/A
11:50 am64 °FPassing clouds.3 mph68%30.09 "HgN/A
11:20 am63 °FPassing clouds.No wind73%30.09 "HgN/A
10:50 am63 °FPassing clouds.No wind73%30.09 "HgN/A
9:50 am50 °FSunny.No wind88%30.09 "Hg10 mi
9:20 am41 °FPassing clouds.2 mph87%30.09 "HgN/A
8:50 am41 °FPassing clouds.2 mph87%30.09 "HgN/A
8:20 am37 °FScattered clouds.2 mph93%30.07 "HgN/A
7:50 am37 °FScattered clouds.2 mph93%30.07 "HgN/A
7:20 am45 °FPassing clouds.2 mph100%30.04 "HgN/A
6:20 am45 °FPassing clouds.No wind100%30.04 "HgN/A
5:50 am45 °FPassing clouds.No wind100%30.04 "HgN/A
5:20 am46 °FPassing clouds.No wind93%30.04 "HgN/A
4:50 am46 °FPassing clouds.No wind93%30.04 "HgN/A
4:20 am48 °FPassing clouds.No wind94%30.01 "HgN/A
3:50 am48 °FPassing clouds.No wind94%30.01 "HgN/A
3:20 am48 °FPassing clouds.No wind94%30.01 "HgN/A
2:50 am48 °FPassing clouds.No wind94%30.01 "HgN/A
2:20 am50 °FPassing clouds.No wind88%30.01 "HgN/A
Weather by CustomWeather, © 2016

See weather overviewHow to use our weather pages